Location: Aix-en-Ergny
(50.5839°N, 1.9996°E)
Time: 12:04:51
(UTC+00:00)

BREEZE-M DEB (TANK) - Pass Details

Date: 23 October 2019
Orbit: 309 x 15441 km, 49.5° (Epoch: 19 November)

Event Time Altitude Azimuth Distance (km) Brightness Sun altitude
Exits shadow 03:39:47 43° 106° (ESE) 789 3.4 -27.0°
Drops below altitude 10° 03:41:37 10° 86° (E) 1,509 5.5 -26.8°
Sets 03:42:59 0° 83° (E) 2,174 6.7 -26.5°
